QPF
0.01 0.01 0.01 0.01 0.01 0.02 0.04 0.04 0.04 0.06 0.08 0.09 0.10 0.09 0.06 0.03 0.02 0.01 0.01 0.01 0.02 0.01 0.01 0.01 0.02 0.02 0.03 0.03 0.03 0.03 0.03 0.02 0.02 0.01 0.01 0.02 0.02 0.02 0.01 0.01 0.01 0.02 0.02
0.01 0.01 0.01 0.01 0.01 0.02 0.02 0.02 0.02 0.04 0.05 0.05 0.06 0.05 0.04 0.03 0.02 0.01 0.01 0.02 0.01 0.01 0.02 0.02 0.01 0.02 0.02 0.02 0.03 0.02 0.02 0.03 0.03 0.03 0.02 0.02 0.02 0.01 0.01 0.01 0.01 0.01 0.01
0.01 0.01 0.01 0.01 0.01 0.02 0.01 0.01 0.02 0.03 0.04 0.04 0.04 0.03 0.03 0.02 0.02 0.01 0.01 0.02 0.01 0.01 0.02 0.02 0.03 0.02 0.02 0.02 0.02 0.01 0.02 0.02 0.03 0.03 0.02 0.02 0.02 0.02 0.02 0.02 0.02 0.02 0.02
0.01 0.02 0.02 0.02 0.02 0.02 0.02 0.02 0.03 0.04 0.05 0.06 0.06 0.04 0.03 0.02 0.02 0.02 0.01 0.02 0.02 0.02 0.04 0.05 0.03 0.03 0.02 0.03 0.02 0.02 0.02 0.02 0.03 0.03 0.02 0.02 0.03 0.03 0.03 0.03 0.04 0.04 0.04
0.02 0.03 0.04 0.05 0.04 0.03 0.02 0.03 0.05 0.06 0.05 0.05 0.04 0.03 0.02 0.02 0.03 0.05 0.04 0.05 0.08 0.08 0.09 0.05 0.03 0.03 0.03 0.03 0.02 0.03 0.03 0.03 0.04 0.03 0.02 0.02 0.03 0.04 0.04 0.04 0.04 0.04 0.04
0.04 0.06 0.06 0.06 0.06 0.05 0.04 0.05 0.05 0.06 0.05 0.05 0.04 0.04 0.03 0.02 0.01 0.02 0.04 0.04 0.08 0.09 0.05 0.04 0.04 0.03 0.03 0.04 0.04 0.05 0.04 0.03 0.03 0.02 0.02 0.02 0.02 0.03 0.03 0.03 0.04 0.05 0.04
0.03 0.02 0.03 0.03 0.03 0.04 0.04 0.03 0.03 0.04 0.04 0.03 0.03 0.03 0.02 0.02 0.03 0.03 0.03 0.03 0.03 0.03 0.02 0.02 0.02 0.02 0.02 0.02 0.02 0.02 0.02 0.02 0.02 0.02 0.02 0.02 0.02 0.02 0.04 0.04 0.04 0.04 0.04
0.01 0.01 0.01 0.01 0.02 0.01 0.02 0.01 0.01 0.02 0.02 0.02 0.02 0.02 0.03 0.03 0.03 0.03 0.03 0.02 0.01 0.02 0.02 0.02 0.02 0.02 0.02 0.02 0.02 0.03 0.03 0.03 0.03 0.02 0.02 0.02 0.03 0.04 0.05 0.05 0.04 0.03 0.02
0.01 0.01 0.01 0.01 0.01 0.01 0.01 0.01 0.01 0.01 0.01 0.02 0.02 0.03 0.03 0.03 0.03 0.03 0.03 0.01 0.02 0.02 0.03 0.03 0.02 0.02 0.03 0.02 0.02 0.03 0.02 0.02 0.02 0.02 0.03 0.02 0.03 0.03 0.03 0.03 0.03 0.03 0.02
0.02 0.02 0.02 0.02 0.02 0.01 0.01 0.01 0.01 0.01 0.01 0.02 0.02 0.02 0.03 0.03 0.02 0.02 0.02 0.01 0.01 0.01 0.02 0.02 0.02 0.02 0.02 0.02 0.02 0.03 0.03 0.02 0.02 0.01 0.01 0.02 0.01 0.02 0.02 0.02 0.02 0.03 0.03
0.02 0.02 0.02 0.02 0.02 0.02 0.02 0.02 0.02 0.02 0.02 0.02 0.01 0.01 0.02 0.02 0.01 0.01 0.01 0.01 0.01 0.01 0.02 0.02 0.01 0.01 0.02 0.02 0.01 0.01 0.01 0.01 0.01 0.02 0.01 0.01 0.01 0.01 0.02 0.02 0.02 0.03 0.04
0.02 0.02 0.02 0.02 0.02 0.01 0.02 0.02 0.02 0.02 0.01 0.01 0.01 0.01 0.01 0.01 0.01 0.01 0.01 0.01 0.01 0.02 0.03 0.02 0.01 0.01 0.01 0.01 0.01 0.01 0.01 0.01 0.01 0.01 0.01 0.01 0.02 0.02 0.02 0.02 0.02 0.02 0.03
0.03 0.02 0.01 0.02 0.02 0.02 0.02 0.02 0.02 0.02 0.02 0.02 0.02 0.02 0.02 0.02 0.02 0.01 0.01 0.01 0.01 0.02 0.02 0.01 0.01 0.01 0.01 0.01 0.01 0.01 0.01 0.02 0.02 0.02 0.02 0.02 0.02 0.02 0.02 0.02 0.02 0.02 0.02
0.02 0.01 0.01 0.02 0.02 0.02 0.03 0.03 0.02 0.02 0.02 0.04 0.02 0.02 0.02 0.02 0.02 0.01 0.02 0.01 0.02 0.02 0.02 0.01 0.01 0.01 0.01 0.01 0.01 0.01 0.02 0.02 0.02 0.03 0.04 0.04 0.04 0.04 0.04 0.04 0.04 0.04 0.03
0.04 0.02 0.01 0.02 0.02 0.02 0.02 0.03 0.03 0.03 0.03 0.03 0.02 0.02 0.02 0.02 0.02 0.02 0.02 0.02 0.01 0.01 0.02 0.02 0.02 0.02 0.01 0.01 0.01 0.01 0.02 0.03 0.03 0.04 0.05 0.06 0.06 0.05 0.06 0.08 0.07 0.05 0.05
0.03 0.03 0.03 0.03 0.02 0.02 0.02 0.02 0.01 0.02 0.01 0.01 0.01 0.01 0.01 0.02 0.04 0.04 0.04 0.03 0.03 0.02 0.02 0.01 0.02 0.02 0.02 0.02 0.01 0.02 0.03 0.03 0.04 0.05 0.08 0.09 0.08 0.06 0.05 0.05 0.05 0.05 0.05
0.03 0.04 0.04 0.03 0.03 0.02 0.02 0.02 0.02 0.02 0.01 0.01 0.01 0.02 0.02 0.03 0.04 0.04 0.04 0.03 0.03 0.02 0.02 0.02 0.02 0.02 0.02 0.02 0.02 0.02 0.03 0.04 0.05 0.05 0.06 0.06 0.06 0.05 0.04 0.04 0.04 0.05 0.06
0.01 0.03 0.04 0.05 0.04 0.03 0.04 0.04 0.04 0.03 0.02 0.02 0.02 0.02 0.03 0.04 0.04 0.03 0.02 0.02 0.02 0.02 0.02 0.02 0.02 0.02 0.02 0.02 0.02 0.02 0.03 0.04 0.05 0.05 0.05 0.05 0.06 0.06 0.06 0.06 0.05 0.04 0.05
0.01 0.01 0.02 0.02 0.03 0.04 0.04 0.04 0.03 0.03 0.02 0.02 0.02 0.02 0.02 0.03 0.03 0.02 0.02 0.02 0.02 0.02 0.01 0.01 0.02 0.02 0.02 0.02 0.03 0.03 0.04 0.05 0.05 0.05 0.05 0.05 0.04 0.05 0.04 0.04 0.04 0.04 0.04
0.02 0.01 0.01 0.01 0.01 0.01 0.01 0.02 0.03 0.02 0.02 0.02 0.02 0.02 0.02 0.02 0.02 0.02 0.02 0.02 0.02 0.02 0.02 0.02 0.02 0.02 0.02 0.02 0.03 0.03 0.03 0.04 0.04 0.05 0.04 0.03 0.02 0.02 0.03 0.03 0.03 0.03 0.03
0.04 0.03 0.02 0.02 0.01 0.01 0.02 0.03 0.04 0.03 0.02 0.02 0.02 0.01 0.01 0.02 0.02 0.03 0.02 0.02 0.01 0.01 0.02 0.02 0.02 0.03 0.02 0.03 0.03 0.04 0.04 0.04 0.04 0.04 0.03 0.02 0.02 0.02 0.02 0.02 0.02 0.02 0.02
0.04 0.03 0.02 0.02 0.02 0.01 0.01 0.02 0.04 0.04 0.04 0.03 0.02 0.02 0.02 0.03 0.04 0.02 0.02 0.01 0.01 0.01 0.01 0.02 0.02 0.02 0.02 0.03 0.03 0.04 0.04 0.04 0.04 0.04 0.03 0.02 0.02 0.02 0.02 0.02 0.02 0.02 0.02
0.01 0.01 0.02 0.03 0.02 0.02 0.01 0.02 0.03 0.03 0.04 0.06 0.05 0.04 0.04 0.04 0.03 0.02 0.02 0.02 0.02 0.01 0.01 0.01 0.02 0.02 0.02 0.03 0.03 0.04 0.05 0.05 0.05 0.04 0.04 0.02 0.01 0.01 0.02 0.01 0.01 0.01 0.02
0.00 0.01 0.01 0.03 0.02 0.02 0.02 0.02 0.02 0.02 0.03 0.04 0.05 0.06 0.07 0.06 0.04 0.03 0.03 0.03 0.03 0.02 0.02 0.02 0.01 0.02 0.03 0.03 0.04 0.03 0.03 0.04 0.05 0.04 0.03 0.02 0.01 0.02 0.02 0.01 0.01 0.01 0.02
0.01 0.01 0.02 0.03 0.03 0.02 0.02 0.02 0.03 0.03 0.03 0.03 0.03 0.04 0.04 0.04 0.04 0.04 0.04 0.03 0.03 0.03 0.03 0.02 0.01 0.01 0.02 0.02 0.02 0.02 0.02 0.02 0.03 0.05 0.04 0.02 0.01 0.01 0.02 0.01 0.01 0.01 0.01
0.00 0.01 0.01 0.01 0.01 0.01 0.01 0.02 0.03 0.04 0.03 0.03 0.03 0.04 0.04 0.02 0.02 0.03 0.03 0.03 0.03 0.03 0.03 0.02 0.02 0.02 0.02 0.02 0.02 0.02 0.02 0.02 0.02 0.04 0.05 0.04 0.02 0.02 0.02 0.02 0.01 0.01 0.02
MSLP
1008.01 1007.88 1007.77 1007.69 1007.61 1007.53 1007.42 1007.29 1007.11 1006.90 1006.65 1006.40 1006.15 1005.91 1005.69 1005.49 1005.30 1005.11 1004.91 1004.67 1004.40 1004.11 1003.80 1003.50 1003.25 1003.07 1002.97 1002.96 1003.03 1003.13 1003.22 1003.25 1003.18 1002.99 1002.67 1002.24 1001.77 1001.32 1000.93 1000.67 1000.53 1000.51 1000.54
1008.79 1008.61 1008.46 1008.32 1008.19 1008.06 1007.90 1007.72 1007.51 1007.26 1007.00 1006.72 1006.45 1006.18 1005.93 1005.68 1005.43 1005.15 1004.83 1004.46 1004.05 1003.61 1003.16 1002.75 1002.41 1002.17 1002.06 1002.07 1002.20 1002.38 1002.58 1002.72 1002.76 1002.66 1002.41 1002.03 1001.59 1001.13 1000.72 1000.42 1000.25 1000.18 1000.19
1009.64 1009.43 1009.24 1009.07 1008.90 1008.72 1008.53 1008.32 1008.08 1007.82 1007.54 1007.26 1006.98 1006.70 1006.42 1006.14 1005.82 1005.45 1005.03 1004.53 1003.98 1003.39 1002.80 1002.25 1001.80 1001.47 1001.31 1001.31 1001.45 1001.68 1001.94 1002.16 1002.28 1002.26 1002.08 1001.77 1001.36 1000.92 1000.51 1000.18 999.97 999.88 999.87
1010.53 1010.32 1010.11 1009.91 1009.70 1009.50 1009.27 1009.03 1008.78 1008.51 1008.23 1007.95 1007.67 1007.39 1007.10 1006.78 1006.42 1005.98 1005.46 1004.85 1004.17 1003.44 1002.71 1002.03 1001.46 1001.03 1000.78 1000.72 1000.82 1001.04 1001.31 1001.57 1001.74 1001.79 1001.68 1001.43 1001.08 1000.67 1000.28 999.95 999.72 999.60 999.57
1011.44 1011.23 1011.02 1010.80 1010.57 1010.32 1010.07 1009.81 1009.54 1009.26 1008.98 1008.71 1008.44 1008.16 1007.86 1007.52 1007.11 1006.62 1006.03 1005.34 1004.55 1003.71 1002.86 1002.05 1001.35 1000.80 1000.44 1000.28 1000.31 1000.47 1000.71 1000.96 1001.16 1001.25 1001.20 1001.02 1000.73 1000.38 1000.03 999.72 999.50 999.37 999.33
1012.33 1012.14 1011.92 1011.68 1011.42 1011.15 1010.86 1010.58 1010.28 1010.00 1009.72 1009.44 1009.18 1008.90 1008.59 1008.23 1007.80 1007.27 1006.62 1005.86 1005.00 1004.08 1003.13 1002.21 1001.39 1000.72 1000.23 999.95 999.87 999.94 1000.11 1000.32 1000.52 1000.63 1000.65 1000.54 1000.34 1000.07 999.78 999.52 999.32 999.19 999.16
1013.19 1013.01 1012.78 1012.52 1012.23 1011.93 1011.61 1011.29 1010.97 1010.67 1010.38 1010.10 1009.83 1009.54 1009.22 1008.84 1008.39 1007.83 1007.15 1006.34 1005.43 1004.44 1003.42 1002.41 1001.49 1000.70 1000.09 999.67 999.46 999.41 999.50 999.65 999.83 999.97 1000.03 1000.01 999.90 999.73 999.54 999.34 999.18 999.09 999.06
1013.98 1013.80 1013.56 1013.28 1012.96 1012.62 1012.27 1011.92 1011.59 1011.27 1010.96 1010.67 1010.38 1010.08 1009.74 1009.34 1008.86 1008.27 1007.56 1006.72 1005.77 1004.74 1003.66 1002.59 1001.58 1000.69 999.95 999.41 999.07 998.90 998.89 998.98 999.12 999.27 999.39 999.45 999.45 999.39 999.30 999.19 999.09 999.03 999.01
1014.70 1014.51 1014.25 1013.94 1013.60 1013.23 1012.86 1012.49 1012.14 1011.81 1011.50 1011.19 1010.88 1010.56 1010.19 1009.76 1009.25 1008.62 1007.88 1007.02 1006.04 1004.98 1003.86 1002.74 1001.66 1000.69 999.85 999.19 998.72 998.44 998.32 998.34 998.44 998.59 998.76 998.90 998.99 999.05 999.06 999.04 999.01 998.98 998.98
1015.33 1015.12 1014.84 1014.51 1014.15 1013.77 1013.39 1013.03 1012.68 1012.35 1012.03 1011.72 1011.39 1011.04 1010.65 1010.18 1009.62 1008.97 1008.19 1007.30 1006.30 1005.22 1004.08 1002.92 1001.79 1000.75 999.82 999.06 998.48 998.09 997.87 997.80 997.86 998.00 998.18 998.38 998.55 998.70 998.80 998.86 998.90 998.91 998.92
1015.87 1015.63 1015.33 1014.99 1014.63 1014.26 1013.90 1013.55 1013.23 1012.92 1012.61 1012.30 1011.97 1011.59 1011.16 1010.66 1010.06 1009.37 1008.56 1007.65 1006.63 1005.53 1004.38 1003.20 1002.05 1000.95 999.97 999.12 998.44 997.94 997.62 997.46 997.45 997.54 997.71 997.93 998.14 998.35 998.51 998.64 998.72 998.77 998.80
1016.32 1016.06 1015.74 1015.41 1015.06 1014.72 1014.39 1014.09 1013.80 1013.52 1013.24 1012.95 1012.61 1012.22 1011.77 1011.23 1010.60 1009.87 1009.04 1008.11 1007.09 1005.99 1004.84 1003.66 1002.50 1001.38 1000.34 999.43 998.66 998.06 997.63 997.37 997.26 997.27 997.39 997.57 997.78 998.00 998.19 998.35 998.47 998.55 998.59
1016.70 1016.41 1016.10 1015.77 1015.45 1015.14 1014.87 1014.61 1014.38 1014.15 1013.90 1013.63 1013.30 1012.91 1012.43 1011.87 1011.22 1010.47 1009.62 1008.69 1007.68 1006.60 1005.47 1004.32 1003.17 1002.05 1000.99 1000.03 999.19 998.49 997.94 997.55 997.31 997.21 997.23 997.32 997.48 997.66 997.84 998.00 998.13 998.23 998.30
1017.02 1016.72 1016.41 1016.10 1015.80 1015.54 1015.31 1015.11 1014.92 1014.74 1014.53 1014.27 1013.96 1013.56 1013.08 1012.51 1011.85 1011.09 1010.26 1009.34 1008.36 1007.33 1006.25 1005.15 1004.05 1002.95 1001.90 1000.91 1000.00 999.21 998.54 998.01 997.62 997.36 997.22 997.19 997.24 997.33 997.46 997.60 997.72 997.84 997.94
1017.33 1017.02 1016.70 1016.41 1016.14 1015.90 1015.71 1015.55 1015.40 1015.24 1015.06 1014.82 1014.51 1014.12 1013.64 1013.06 1012.40 1011.66 1010.86 1009.99 1009.07 1008.10 1007.11 1006.09 1005.05 1004.01 1002.98 1001.98 1001.03 1000.16 999.37 998.69 998.12 997.68 997.37 997.16 997.06 997.04 997.08 997.17 997.28 997.41 997.55
1017.64 1017.32 1017.01 1016.71 1016.45 1016.23 1016.05 1015.90 1015.77 1015.62 1015.44 1015.20 1014.90 1014.50 1014.02 1013.46 1012.82 1012.11 1011.35 1010.55 1009.71 1008.84 1007.95 1007.03 1006.09 1005.13 1004.15 1003.17 1002.19 1001.24 1000.34 999.50 998.76 998.13 997.61 997.22 996.95 996.78 996.72 996.74 996.83 996.98 997.16
1017.99 1017.66 1017.34 1017.03 1016.76 1016.54 1016.35 1016.19 1016.04 1015.88 1015.68 1015.43 1015.11 1014.72 1014.24 1013.69 1013.07 1012.41 1011.70 1010.98 1010.24 1009.48 1008.71 1007.91 1007.08 1006.21 1005.30 1004.34 1003.35 1002.35 1001.35 1000.38 999.46 998.64 997.92 997.33 996.88 996.57 996.39 996.34 996.40 996.56 996.78
1018.38 1018.04 1017.70 1017.38 1017.09 1016.84 1016.62 1016.43 1016.25 1016.06 1015.84 1015.56 1015.22 1014.81 1014.33 1013.79 1013.20 1012.58 1011.94 1011.30 1010.65 1010.01 1009.35 1008.67 1007.96 1007.18 1006.35 1005.43 1004.45 1003.41 1002.32 1001.23 1000.16 999.16 998.25 997.47 996.85 996.39 996.10 995.97 996.00 996.16 996.44
1018.80 1018.45 1018.09 1017.75 1017.44 1017.16 1016.91 1016.68 1016.46 1016.23 1015.97 1015.67 1015.31 1014.88 1014.40 1013.87 1013.30 1012.72 1012.14 1011.56 1011.00 1010.45 1009.90 1009.33 1008.71 1008.03 1007.27 1006.40 1005.42 1004.36 1003.21 1002.02 1000.82 999.66 998.59 997.64 996.85 996.25 995.85 995.66 995.65 995.81 996.12
1019.20 1018.85 1018.49 1018.14 1017.81 1017.50 1017.23 1016.97 1016.72 1016.46 1016.17 1015.84 1015.46 1015.02 1014.53 1014.01 1013.46 1012.90 1012.36 1011.84 1011.34 1010.87 1010.39 1009.91 1009.37 1008.77 1008.06 1007.23 1006.27 1005.19 1004.00 1002.73 1001.43 1000.15 998.93 997.84 996.91 996.19 995.68 995.41 995.35 995.50 995.83
1019.54 1019.20 1018.85 1018.50 1018.18 1017.87 1017.59 1017.32 1017.05 1016.78 1016.47 1016.13 1015.73 1015.29 1014.80 1014.28 1013.74 1013.21 1012.69 1012.20 1011.74 1011.31 1010.89 1010.45 1009.97 1009.42 1008.75 1007.96 1007.01 1005.92 1004.70 1003.39 1002.01 1000.63 999.31 998.10 997.06 996.22 995.62 995.27 995.16 995.28 995.61
1019.78 1019.46 1019.14 1018.82 1018.51 1018.23 1017.96 1017.70 1017.45 1017.17 1016.87 1016.53 1016.14 1015.70 1015.22 1014.70 1014.17 1013.64 1013.14 1012.66 1012.22 1011.80 1011.40 1010.99 1010.54 1010.02 1009.38 1008.60 1007.68 1006.59 1005.36 1004.02 1002.60 1001.16 999.76 998.46 997.33 996.40 995.71 995.29 995.11 995.19 995.48
1019.87 1019.60 1019.32 1019.05 1018.78 1018.54 1018.31 1018.08 1017.85 1017.60 1017.32 1017.00 1016.63 1016.20 1015.73 1015.22 1014.70 1014.18 1013.67 1013.19 1012.75 1012.34 1011.94 1011.54 1011.10 1010.58 1009.97 1009.21 1008.30 1007.23 1006.01 1004.66 1003.23 1001.77 1000.33 998.99 997.79 996.79 996.03 995.52 995.27 995.28 995.52
1019.82 1019.61 1019.38 1019.16 1018.95 1018.75 1018.57 1018.39 1018.19 1017.98 1017.73 1017.43 1017.08 1016.68 1016.23 1015.74 1015.23 1014.72 1014.22 1013.74 1013.29 1012.88 1012.48 1012.07 1011.63 1011.13 1010.53 1009.79 1008.91 1007.87 1006.68 1005.36 1003.95 1002.50 1001.06 999.70 998.47 997.42 996.60 996.02 995.69 995.61 995.76
1019.66 1019.49 1019.32 1019.15 1018.99 1018.84 1018.70 1018.55 1018.40 1018.21 1017.99 1017.73 1017.41 1017.03 1016.61 1016.15 1015.66 1015.17 1014.68 1014.21 1013.77 1013.36 1012.96 1012.56 1012.13 1011.64 1011.07 1010.37 1009.52 1008.54 1007.40 1006.14 1004.78 1003.38 1001.97 1000.62 999.39 998.32 997.45 996.80 996.39 996.22 996.26
1019.41 1019.28 1019.15 1019.02 1018.90 1018.78 1018.66 1018.54 1018.41 1018.24 1018.05 1017.81 1017.51 1017.17 1016.78 1016.36 1015.90 1015.45 1014.99 1014.55 1014.14 1013.74 1013.36 1012.98 1012.58 1012.12 1011.58 1010.93 1010.14 1009.23 1008.17 1006.99 1005.71 1004.38 1003.04 1001.74 1000.53 999.46 998.56 997.86 997.37 997.09 997.01
Thickness
5781 5778 5775 5772 5769 5766 5762 5759 5756 5753 5750 5747 5745 5741 5738 5736 5734 5731 5730 5728 5726 5724 5723 5722 5720 5719 5720 5720 5719 5717 5715 5712 5707 5709 5710 5708 5703 5701 5701 5700 5700 5699 5699
5778 5775 5772 5768 5765 5761 5758 5755 5752 5749 5746 5743 5740 5736 5733 5731 5728 5725 5723 5722 5719 5717 5716 5715 5714 5714 5711 5711 5711 5710 5708 5706 5703 5699 5701 5701 5698 5696 5695 5694 5696 5697 5695
5776 5771 5767 5763 5759 5756 5753 5750 5747 5744 5741 5738 5735 5731 5728 5726 5723 5720 5717 5716 5714 5712 5710 5708 5708 5706 5704 5704 5703 5703 5702 5701 5698 5695 5694 5694 5693 5692 5689 5690 5691 5689 5690
5770 5766 5761 5758 5754 5751 5748 5745 5742 5738 5735 5732 5729 5726 5723 5721 5718 5715 5712 5710 5707 5706 5704 5703 5701 5700 5698 5696 5696 5694 5693 5692 5691 5689 5688 5688 5686 5686 5684 5683 5683 5683 5683
5762 5759 5755 5752 5749 5745 5742 5739 5735 5732 5729 5726 5723 5720 5718 5716 5713 5709 5706 5704 5701 5699 5698 5697 5695 5693 5690 5688 5689 5687 5685 5684 5683 5683 5682 5681 5679 5677 5677 5677 5675 5676 5677
5755 5752 5749 5745 5742 5739 5735 5732 5728 5725 5722 5719 5716 5713 5711 5710 5704 5699 5697 5698 5696 5693 5691 5690 5690 5687 5684 5680 5677 5675 5674 5674 5673 5673 5674 5673 5671 5671 5670 5669 5669 5667 5665
5748 5745 5741 5738 5735 5731 5728 5725 5721 5718 5715 5712 5709 5707 5704 5699 5694 5691 5688 5689 5689 5687 5685 5684 5684 5684 5679 5677 5673 5669 5668 5665 5663 5664 5665 5664 5664 5665 5662 5662 5660 5659 5658
5741 5738 5734 5731 5727 5723 5719 5716 5713 5712 5709 5705 5702 5700 5696 5692 5687 5683 5681 5682 5682 5680 5679 5677 5675 5674 5673 5669 5668 5666 5665 5664 5661 5660 5659 5658 5659 5657 5656 5655 5654 5655 5655
5733 5730 5727 5724 5719 5716 5712 5709 5707 5704 5701 5698 5696 5693 5689 5685 5680 5676 5673 5676 5675 5674 5672 5670 5669 5666 5662 5659 5659 5659 5658 5658 5657 5654 5652 5651 5650 5648 5648 5648 5649 5650 5650
5725 5721 5719 5716 5713 5710 5706 5702 5700 5697 5695 5692 5689 5686 5682 5678 5673 5669 5666 5670 5669 5668 5666 5664 5660 5657 5653 5650 5651 5651 5650 5651 5651 5651 5648 5647 5646 5646 5643 5642 5643 5643 5643
5718 5714 5712 5709 5706 5704 5699 5696 5693 5690 5688 5685 5682 5679 5676 5672 5667 5662 5659 5661 5660 5660 5659 5658 5656 5649 5645 5643 5642 5643 5642 5641 5643 5644 5644 5644 5644 5642 5642 5640 5638 5636 5636
5710 5707 5704 5702 5700 5698 5692 5688 5685 5682 5680 5677 5674 5672 5670 5666 5661 5657 5652 5650 5649 5650 5650 5650 5648 5641 5638 5636 5636 5635 5634 5633 5637 5638 5637 5637 5637 5637 5637 5635 5633 5631 5629
5702 5699 5696 5694 5691 5689 5685 5681 5678 5675 5674 5671 5668 5666 5663 5661 5656 5651 5647 5644 5642 5642 5643 5639 5636 5633 5632 5632 5630 5629 5628 5630 5631 5631 5631 5631 5632 5631 5630 5628 5627 5625 5624
5695 5691 5689 5686 5683 5679 5676 5674 5671 5667 5664 5662 5660 5658 5656 5653 5650 5646 5643 5641 5637 5636 5636 5633 5629 5627 5627 5626 5626 5626 5625 5624 5624 5624 5624 5624 5625 5624 5623 5623 5622 5620 5619
5687 5684 5681 5678 5675 5671 5668 5664 5661 5657 5653 5650 5650 5648 5646 5644 5637 5630 5630 5631 5630 5629 5627 5627 5627 5626 5625 5624 5623 5622 5620 5618 5617 5616 5616 5616 5616 5616 5616 5616 5614 5613 5611
5680 5677 5675 5672 5668 5665 5661 5657 5650 5647 5642 5638 5635 5633 5633 5629 5624 5622 5620 5618 5617 5615 5617 5621 5620 5619 5618 5617 5616 5615 5614 5613 5611 5609 5609 5609 5608 5608 5609 5609 5608 5606 5605
5672 5669 5667 5664 5661 5657 5655 5651 5646 5641 5635 5631 5628 5624 5621 5618 5616 5614 5612 5611 5610 5608 5612 5614 5613 5611 5610 5609 5608 5608 5607 5606 5604 5603 5602 5602 5601 5601 5602 5602 5601 5600 5599
5666 5662 5658 5656 5653 5651 5648 5644 5641 5638 5634 5631 5624 5618 5614 5612 5609 5608 5606 5605 5608 5606 5607 5607 5605 5604 5603 5602 5602 5601 5600 5599 5598 5596 5596 5595 5595 5594 5594 5594 5594 5593 5593
5659 5655 5651 5648 5646 5643 5640 5638 5635 5631 5628 5626 5623 5616 5609 5607 5604 5602 5600 5603 5605 5603 5602 5600 5599 5597 5597 5596 5595 5593 5592 5590 5590 5589 5589 5589 5589 5588 5587 5587 5588 5585 5585
5649 5643 5640 5640 5638 5635 5632 5629 5626 5623 5620 5618 5614 5611 5606 5603 5602 5600 5597 5598 5598 5596 5595 5593 5592 5590 5589 5588 5587 5586 5585 5584 5583 5583 5583 5583 5582 5582 5581 5581 5582 5581 5580
5644 5639 5631 5632 5630 5627 5623 5620 5618 5614 5611 5607 5604 5601 5593 5596 5596 5594 5594 5592 5590 5589 5588 5586 5585 5584 5583 5582 5580 5579 5578 5577 5577 5577 5577 5576 5576 5575 5575 5576 5575 5575 5574
5636 5633 5628 5624 5621 5617 5614 5611 5609 5607 5604 5600 5597 5595 5587 5589 5590 5589 5587 5586 5584 5582 5581 5580 5579 5578 5576 5575 5573 5572 5571 5570 5569 5569 5569 5569 5569 5569 5569 5569 5569 5568 5567
5628 5625 5621 5617 5613 5607 5605 5604 5601 5599 5597 5594 5591 5588 5585 5583 5582 5581 5579 5579 5577 5575 5574 5572 5571 5570 5568 5567 5566 5563 5562 5561 5561 5560 5559 5560 5561 5561 5562 5562 5561 5560 5560
5620 5617 5613 5610 5605 5603 5600 5598 5595 5592 5590 5588 5584 5581 5578 5575 5574 5573 5572 5571 5569 5568 5566 5565 5563 5561 5559 5558 5557 5555 5553 5551 5551 5552 5551 5552 5552 5554 5555 5554 5554 5553 5551
5614 5610 5606 5603 5599 5597 5595 5591 5588 5585 5583 5580 5577 5574 5572 5570 5569 5567 5565 5563 5562 5561 5559 5557 5555 5553 5551 5549 5548 5546 5542 5541 5541 5541 5543 5545 5546 5546 5547 5547 5546 5545 5544
5607 5604 5600 5597 5594 5592 5588 5585 5582 5579 5576 5574 5571 5569 5567 5565 5563 5561 5559 5557 5556 5554 5552 5550 5547 5545 5543 5542 5539 5536 5534 5534 5534 5533 5535 5538 5539 5539 5538 5539 5538 5538 5536